Flag for United Kingdom Weather past 2 weeks in Huddersfield, England, United Kingdom

41 °F


Feels Like: 35 °F
Forecast: N/A
Wind: 10 mph from Northwest

Location: Leeds And Bradford

Current Time: Nov 25, 2015 at 6:24:55 PM

Latest Report: Nov 25, 2015 at 5:50 PM

Visibility: 10 mi

Pressure: 29.92 "Hg

Humidity: 93%

Dew point: 39 °F

Location of HuddersfieldLocation

Historic Weather in Huddersfield — Graph


Huddersfield temperature yesterday

Maximum temperature yesterday: 46 °F (at 1:50 PM)
Minimum temperature yesterday: 39 °F (at 7:50 PM)
Average temperature yesterday: 43 °F

Past Weeks' High & Low Weather Summary

High57 °F (Nov 10, 5:20 PM)100% (Nov 14, 10:50 AM)30.18 "Hg (Nov 14, 10:50 AM)
Low28 °F (Nov 21, 9:20 PM)59% (Nov 12, 12:50 PM)29.15 "Hg (Nov 17, 4:50 PM)
Average44 °F87%29.77 "Hg
* Reported Nov 10 5:20 PM — Nov 25 5:20 PM, Huddersfield, Weather by CustomWeather, © 2015

Note: Actual official high and low records may vary slightly from our data, if they occured in-between our weather recording intervals... More about our weather records


Huddersfield weather history for previous 24 hours

Time TempWeatherWind HumidityBarometerVisibility
5:20 PM
Wed, Nov 25
43 °FClear.10 mph93%29.92 "Hg10 mi
4:50 PM45 °FClear.15 mph87%29.89 "Hg10 mi
4:20 PM45 °FClear.15 mph87%29.89 "Hg10 mi
3:50 PM45 °FPassing clouds.9 mph87%29.89 "HgN/A
3:20 PM46 °FPassing clouds.12 mph82%29.86 "HgN/A
2:50 PM46 °FPassing clouds.14 mph82%29.86 "HgN/A
2:20 PM46 °FPassing clouds.15 mph82%29.86 "HgN/A
1:50 PM46 °FPassing clouds.13 mph82%29.86 "HgN/A
1:20 PM46 °FPassing clouds.14 mph82%29.86 "HgN/A
12:50 PM46 °FPassing clouds.16 mph82%29.86 "HgN/A
12:20 PM46 °FPassing clouds.17 mph76%29.83 "HgN/A
11:50 AM46 °FPassing clouds.17 mph76%29.83 "HgN/A
11:20 AM45 °FPassing clouds.15 mph87%29.83 "HgN/A
10:50 AM45 °FPassing clouds.15 mph87%29.83 "HgN/A
10:20 AM43 °FPassing clouds.13 mph87%29.83 "HgN/A
9:50 AM43 °FSunny.14 mph87%29.83 "Hg10 mi
9:20 AM43 °FSunny.15 mph87%29.80 "Hg10 mi
8:50 AM43 °FPassing clouds.21 mph87%29.80 "HgN/A
8:20 AM43 °FPassing clouds.17 mph87%29.77 "HgN/A
7:50 AM43 °FPassing clouds.15 mph93%29.77 "HgN/A
7:20 AM41 °FPassing clouds.16 mph93%29.77 "HgN/A
6:50 AM41 °FPassing clouds.16 mph93%29.74 "HgN/A
6:20 AM41 °FPassing clouds.13 mph93%29.74 "HgN/A
5:50 AM41 °FClear.12 mph87%29.74 "Hg10 mi
5:20 AM41 °FClear.12 mph87%29.74 "Hg10 mi
4:50 AM41 °FClear.10 mph87%29.74 "Hg10 mi
4:20 AM39 °FClear.12 mph93%29.71 "Hg10 mi
3:20 AM39 °FClear.10 mph93%29.74 "Hg10 mi
2:50 AM39 °FClear.14 mph93%29.74 "Hg10 mi
2:20 AM39 °FPassing clouds.12 mph93%29.74 "HgN/A
1:50 AM41 °FPassing clouds.9 mph93%29.71 "HgN/A
1:20 AM39 °FClear.8 mph93%29.74 "Hg10 mi
12:20 AM41 °FClear.13 mph93%29.71 "Hg10 mi
11:50 PM
Tue, Nov 24
41 °FClear.12 mph93%29.71 "Hg10 mi
11:20 PM41 °FClear.14 mph93%29.71 "Hg10 mi
10:50 PM41 °FClear.14 mph93%29.71 "Hg10 mi
10:20 PM41 °FClear.10 mph87%29.71 "Hg10 mi
9:50 PM39 °FClear.13 mph93%29.71 "Hg10 mi
9:20 PM41 °FPassing clouds.14 mph93%29.71 "HgN/A
8:50 PM41 °FClear.14 mph93%29.71 "Hg10 mi
8:20 PM39 °FPassing clouds.9 mph93%29.71 "HgN/A
7:50 PM39 °FPassing clouds.8 mph93%29.71 "HgN/A
7:20 PM41 °FPassing clouds.13 mph93%29.71 "HgN/A
6:50 PM41 °FPassing clouds.14 mph93%29.71 "HgN/A
6:20 PM41 °FPassing clouds.8 mph93%29.71 "HgN/A
Weather by CustomWeather, © 2015

See weather overviewHow to use our weather pages